Change the Weather History Date:

Sunday, June 22, 2014

  Actual Average Record
Temperature  
Mean Temperature 64 °F -  
Max Temperature 70 °F 82 °F 80 °F (2003)
Min Temperature 56 °F 61 °F 44 °F (2003)
Degree Days  
Heating Degree Days 2    
Growing Degree Days 14 (Base 50)    
Moisture  
Dew Point 55 °F    
Average Humidity 74    
Maximum Humidity 91    
Minimum Humidity 59    
Precipitation  
Precipitation 0.00 in - - ()
Sea Level Pressure  
Sea Level Pressure 29.95 in    
Wind  
Wind Speed 5 mph (East)    
Max Wind Speed 13 mph    
Max Gust Speed -    
Visibility 10 miles    
Events      
Averages and records for this station are not official NWS values.
T = Trace of Precipitation, MM = Missing Value Source: NWS Daily Summary

Daily Weather History Graph

Daily Weather History Graph

Search for Another Location

Airport or City:

Trip Planner

Search our weather history database for the weather conditions in past years. The results will help you decide how hot, cold, wet, or windy it might be!

Date:

Astronomy

Jun. 22, 2014 Rise Set
Actual Time 5:53 AM EDT 9:32 PM EDT
Civil Twilight 5:15 AM EDT 10:10 PM EDT
Nautical Twilight 4:25 AM EDT 11:01 PM EDT
Astronomical Twilight 3:17 AM EDT 12:09 AM EDT
Moon 2:51 AM EDT (6/22) 5:04 PM EDT (6/22)
Length of Visible Light 16h 55m
Length of Day
15h 39m
Waning Crescent, 21% of the Moon is Illuminated
Jun 22
Waning Crescent
Jun 27
New
Jul 5
First Quarter
Jul 12
Full
Jul 18
Last Quarter

Hourly Weather History & Observations

Time (EDT) Temp. Dew Point Humidity Pressure Visibility Wind Dir Wind Speed Gust Speed Precip Events Conditions
12:15 AM 62.6 °F 56.1 °F 79% 29.97 in 10.0 mi ESE 6.9 mph - N/A   Overcast
12:35 AM 62.6 °F 56.3 °F 80% 29.97 in 10.0 mi ESE 4.6 mph - N/A   Overcast
12:54 AM 62.6 °F 54.5 °F 75% 29.96 in 10.0 mi ESE 8.1 mph - N/A   Overcast
1:15 AM 62.8 °F 53.4 °F 71% 29.96 in 10.0 mi ESE 6.9 mph - N/A   Overcast
1:35 AM 62.8 °F 53.8 °F 72% 29.95 in 10.0 mi ESE 5.8 mph - N/A   Overcast
1:54 AM 61.9 °F 54.5 °F 77% 29.95 in 10.0 mi ESE 3.5 mph - N/A   Mostly Cloudy
2:15 AM 61.7 °F 54.5 °F 77% 29.95 in 10.0 mi ESE 3.5 mph - N/A   Mostly Cloudy
2:35 AM 61.5 °F 54.7 °F 78% 29.94 in 10.0 mi SE 4.6 mph - N/A   Overcast
2:54 AM 61.5 °F 54.7 °F 78% 29.94 in 10.0 mi ESE 4.6 mph - N/A   Overcast
3:15 AM 61.7 °F 54.7 °F 78% 29.95 in 10.0 mi East 4.6 mph - N/A   Overcast
3:35 AM 62.1 °F 55.0 °F 78% 29.94 in 10.0 mi ESE 4.6 mph - N/A   Overcast
3:54 AM 62.1 °F 54.7 °F 77% 29.94 in 10.0 mi East 4.6 mph - N/A   Overcast
4:15 AM 62.2 °F 54.5 °F 76% 29.94 in 10.0 mi ESE 4.6 mph - N/A   Overcast
4:35 AM 62.1 °F 53.8 °F 74% 29.94 in 10.0 mi Calm Calm - N/A   Overcast
4:54 AM 60.8 °F 53.4 °F 77% 29.95 in 10.0 mi Calm Calm - N/A   Mostly Cloudy
5:15 AM 61.5 °F 54.3 °F 77% 29.95 in 10.0 mi East 3.5 mph - N/A   Overcast
5:34 AM 62.6 °F 53.2 °F 71% 29.94 in 10.0 mi ESE 3.5 mph - N/A   Overcast
5:54 AM 62.4 °F 53.1 °F 71% 29.94 in 10.0 mi ESE 4.6 mph - N/A   Overcast
6:15 AM 62.1 °F 53.8 °F 74% 29.95 in 10.0 mi ESE 4.6 mph - N/A   Overcast
6:34 AM 62.1 °F 54.1 °F 75% 29.95 in 10.0 mi ESE 5.8 mph - N/A   Overcast
6:55 AM 62.6 °F 53.8 °F 73% 29.96 in 10.0 mi ESE 6.9 mph - N/A   Overcast
7:15 AM 62.6 °F 55.0 °F 76% 29.96 in 10.0 mi ESE 5.8 mph - N/A   Overcast
7:34 AM 63.0 °F 53.8 °F 72% 29.96 in 10.0 mi ESE 4.6 mph - N/A   Overcast
7:55 AM 63.7 °F 54.0 °F 71% 29.97 in 10.0 mi ESE 4.6 mph - N/A   Overcast
8:15 AM 64.4 °F 54.1 °F 69% 29.97 in 10.0 mi ESE 6.9 mph - N/A   Mostly Cloudy
8:34 AM 65.1 °F 53.6 °F 66% 29.96 in 10.0 mi ESE 4.6 mph - N/A   Mostly Cloudy
8:55 AM 65.7 °F 54.3 °F 67% 29.95 in 10.0 mi East 8.1 mph - N/A   Mostly Cloudy
9:15 AM 65.7 °F 54.0 °F 66% 29.96 in 10.0 mi ESE 6.9 mph - N/A   Mostly Cloudy
9:34 AM 66.9 °F 54.9 °F 65% 29.96 in 10.0 mi ESE 6.9 mph - N/A   Mostly Cloudy
9:55 AM 67.6 °F 54.5 °F 63% 29.97 in 10.0 mi ESE 5.8 mph - N/A   Scattered Clouds
10:15 AM 68.0 °F 54.0 °F 61% 29.97 in 10.0 mi East 6.9 mph - N/A   Mostly Cloudy
10:34 AM 67.6 °F 55.2 °F 64% 29.97 in 10.0 mi East 5.8 mph - N/A   Overcast
10:55 AM 68.0 °F 55.2 °F 64% 29.97 in 10.0 mi SSE 3.5 mph - N/A   Overcast
11:15 AM 69.4 °F 54.7 °F 59% 29.98 in 10.0 mi Calm Calm - N/A   Mostly Cloudy
11:34 AM 70.2 °F 56.8 °F 63% 29.98 in 10.0 mi NNE 5.8 mph - N/A   Mostly Cloudy
11:55 AM 67.8 °F 55.4 °F 64% 29.98 in 10.0 mi NNW 4.6 mph - N/A   Scattered Clouds
12:15 PM 68.0 °F 56.3 °F 66% 29.97 in 10.0 mi North 5.8 mph - N/A   Clear
12:34 PM 68.0 °F 56.8 °F 67% 29.97 in 10.0 mi NW 6.9 mph - N/A   Scattered Clouds
12:55 PM 65.5 °F 55.6 °F 70% 29.98 in 10.0 mi NW 8.1 mph - N/A   Mostly Cloudy
1:15 PM 59.9 °F 52.9 °F 78% 29.97 in 10.0 mi NNW 6.9 mph - N/A   Scattered Clouds
1:34 PM 58.3 °F 51.1 °F 77% 29.98 in 10.0 mi NW 6.9 mph - N/A   Mostly Cloudy
1:55 PM 60.4 °F 53.2 °F 77% 29.97 in 10.0 mi NNW 6.9 mph - N/A   Mostly Cloudy
2:14 PM 63.5 °F 55.2 °F 74% 29.97 in 10.0 mi WNW 6.9 mph - N/A   Scattered Clouds
2:34 PM 64.4 °F 56.5 °F 75% 29.97 in 10.0 mi NW 6.9 mph - N/A   Clear
2:55 PM 65.1 °F 56.5 °F 74% 29.96 in 10.0 mi NW 6.9 mph - N/A   Clear
3:14 PM 64.8 °F 54.7 °F 70% 29.97 in 10.0 mi NW 6.9 mph - N/A   Clear
3:34 PM 66.0 °F 55.4 °F 69% 29.96 in 10.0 mi NNW 4.6 mph - N/A   Clear
3:55 PM 66.2 °F 57.4 °F 73% 29.95 in 10.0 mi NW 6.9 mph - N/A   Clear
4:14 PM 66.4 °F 57.2 °F 72% 29.96 in 10.0 mi West 12.7 mph - N/A   Clear
4:34 PM 66.0 °F 56.5 °F 71% 29.96 in 10.0 mi West 10.4 mph - N/A   Clear
4:55 PM 66.2 °F 56.5 °F 71% 29.96 in 10.0 mi West 8.1 mph - N/A   Clear
5:14 PM 66.6 °F 55.9 °F 69% 29.96 in 10.0 mi WNW 6.9 mph - N/A   Clear
5:34 PM 65.5 °F 55.8 °F 71% 29.96 in 10.0 mi WNW 8.1 mph - N/A   Clear
5:55 PM 64.4 °F 55.6 °F 73% 29.96 in 10.0 mi West 6.9 mph - N/A   Clear
6:14 PM 63.5 °F 54.5 °F 72% 29.95 in 10.0 mi WNW 8.1 mph - N/A   Clear
6:35 PM 63.1 °F 54.1 °F 72% 29.94 in 10.0 mi WNW 4.6 mph - N/A   Clear
6:55 PM 62.4 °F 54.1 °F 74% 29.93 in 10.0 mi NW 3.5 mph - N/A   Clear
7:14 PM 62.1 °F 54.0 °F 75% 29.92 in 10.0 mi Calm Calm - N/A   Clear
7:35 PM 62.4 °F 54.3 °F 75% 29.91 in 10.0 mi Calm Calm - N/A   Clear
7:55 PM 64.2 °F 55.0 °F 72% 29.92 in 10.0 mi Calm Calm - N/A   Clear
8:14 PM 64.8 °F 56.1 °F 74% 29.92 in 10.0 mi Calm Calm - N/A   Clear
8:35 PM 65.7 °F 57.7 °F 76% 29.92 in 10.0 mi Calm Calm - N/A   Scattered Clouds
8:55 PM 65.5 °F 57.6 °F 76% 29.93 in 10.0 mi Calm Calm - N/A   Clear
9:14 PM 65.7 °F 58.1 °F 77% 29.92 in 10.0 mi Calm Calm - N/A   Clear
9:35 PM 64.8 °F 58.1 °F 79% 29.93 in 10.0 mi Calm Calm - N/A   Clear
9:55 PM 61.3 °F 54.9 °F 79% 29.92 in 10.0 mi NW 3.5 mph - N/A   Clear
10:14 PM 59.0 °F 54.7 °F 86% 29.93 in 10.0 mi Calm Calm - N/A   Clear
10:35 PM 59.0 °F 55.0 °F 87% 29.93 in 10.0 mi WSW 3.5 mph - N/A   Clear
10:55 PM 59.9 °F 56.5 °F 88% 29.93 in 10.0 mi Calm Calm - N/A   Scattered Clouds
11:14 PM 59.2 °F 55.9 °F 89% 29.94 in 10.0 mi Calm Calm - N/A   Scattered Clouds
11:35 PM 57.6 °F 54.5 °F 90% 29.93 in 10.0 mi Calm Calm - N/A   Clear
11:54 PM 56.3 °F 53.6 °F 91% 29.92 in 10.0 mi Calm Calm - N/A   Clear